Simultaneous Nadir Overpasses (SNOs) Predictions

Prediction of SNOs between GOES-15 and NOAA-20 Satellite Orbit:

Table of predicted SNOs for the next 14.0 days since TLE Epoch: 2/10/2024
Index Date Time (GOES-15) GOES-15 Lat,Lon NOAA-20 Lat,Lon Distance(km) Time Diff (sec)
1 02/10/2024 21:20:53 0.01, 61.47 0.04, 61.45 4.39 80
2 02/13/2024 09:21:25 0.00, 61.53 -0.19, 60.67 97.61 80
3 02/14/2024 09:05:21 0.00, 61.52 0.82, 65.20 419.99 80
4 02/15/2024 21:27:09 0.00, 61.41 0.34, 59.93 169.21 80
5 02/16/2024 21:05:45 0.00, 61.41 -0.67, 64.46 347.91 80
6 02/18/2024 09:27:41 -0.00, 61.49 -0.54, 59.16 265.38 80
7 02/19/2024 09:11:37 -0.00, 61.48 0.48, 63.69 251.59 80
8 02/20/2024 21:33:25 -0.00, 61.38 0.66, 58.42 338.16 80
9 02/21/2024 21:12:00 -0.01, 61.38 -0.36, 62.95 178.57 80
10 02/23/2024 09:33:57 0.01, 61.47 -0.84, 57.65 435.37 80
